Time,TemperatureF,DewpointF,PressureIn,WindDirection,WindDirectionDegrees,WindSpeedMPH,WindSpeedGustMPH,Humidity,HourlyPrecipIn,Conditions,Clouds,dailyrainin,SolarRadiationWatts/m^2,SoftwareType,DateUTC
2016-08-30 00:02:00,73.0,70.9,29.71,South,176,0.0,0.0,93,0.00,,,0.00,0.00,Weather logger V3.0.,2016-08-30 04:02:00,
2016-08-30 00:07:00,72.9,70.7,29.70,South,176,0.0,0.0,93,0.00,,,0.00,0.00,Weather logger V3.0.,2016-08-30 04:07:00,
2016-08-30 00:12:00,72.7,70.5,29.71,South,176,0.0,0.0,93,0.00,,,0.00,0.00,Weather logger V3.0.,2016-08-30 04:12:00,
2016-08-30 00:17:00,72.7,70.9,29.71,South,176,0.0,0.0,94,0.00,,,0.00,0.00,Weather logger V3.0.,2016-08-30 04:17:00,
2016-08-30 00:22:00,72.7,70.9,29.71,South,176,0.0,0.0,94,0.00,,,0.00,0.00,Weather logger V3.0.,2016-08-30 04:22:00,
2016-08-30 00:27:00,72.7,70.9,29.71,South,176,0.0,0.0,94,0.00,,,0.00,0.00,Weather logger V3.0.,2016-08-30 04:27:00,
2016-08-30 00:32:00,72.5,70.7,29.71,South,176,0.0,0.0,94,0.00,,,0.00,0.00,Weather logger V3.0.,2016-08-30 04:32:00,
2016-08-30 00:37:00,72.5,70.7,29.71,South,176,0.0,0.0,94,0.00,,,0.00,0.00,Weather logger V3.0.,2016-08-30 04:37:00,
2016-08-30 00:42:00,72.3,70.5,29.70,South,176,0.0,0.0,94,0.00,,,0.00,0.00,Weather logger V3.0.,2016-08-30 04:42:00,
2016-08-30 00:47:00,72.1,70.3,29.71,South,176,0.0,0.0,94,0.00,,,0.00,0.00,Weather logger V3.0.,2016-08-30 04:47:00,
2016-08-30 00:52:00,72.0,70.2,29.70,South,176,0.0,0.0,94,0.00,,,0.00,0.00,Weather logger V3.0.,2016-08-30 04:52:00,
2016-08-30 01:01:00,72.0,70.5,29.70,South,176,0.0,0.0,95,0.00,,,0.00,0.00,Weather logger V3.0.,2016-08-30 05:01:00,
2016-08-30 01:12:00,71.8,70.3,29.70,South,176,0.0,0.0,95,0.00,,,0.00,0.00,Weather logger V3.0.,2016-08-30 05:12:00,
2016-08-30 01:17:00,72.0,70.5,29.70,South,176,0.0,0.0,95,0.00,,,0.00,0.00,Weather logger V3.0.,2016-08-30 05:17:00,
2016-08-30 01:22:00,72.0,70.5,29.70,South,176,0.0,0.0,95,0.00,,,0.00,0.00,Weather logger V3.0.,2016-08-30 05:22:00,
2016-08-30 01:27:00,71.8,70.7,29.70,South,176,0.0,0.0,96,0.00,,,0.00,0.00,Weather logger V3.0.,2016-08-30 05:27:00,
2016-08-30 01:32:00,71.8,70.7,29.70,South,176,0.0,0.0,96,0.00,,,0.00,0.00,Weather logger V3.0.,2016-08-30 05:32:00,
2016-08-30 01:42:00,71.6,70.5,29.70,South,176,0.0,0.0,96,0.00,,,0.00,0.00,Weather logger V3.0.,2016-08-30 05:42:00,
2016-08-30 01:47:00,71.4,70.3,29.70,South,176,0.0,0.0,96,0.00,,,0.00,0.00,Weather logger V3.0.,2016-08-30 05:47:00,
2016-08-30 01:52:00,71.2,70.2,29.70,South,176,0.0,0.0,96,0.00,,,0.00,0.00,Weather logger V3.0.,2016-08-30 05:52:00,
2016-08-30 01:57:00,71.2,70.2,29.70,South,176,0.0,0.0,96,0.00,,,0.00,0.00,Weather logger V3.0.,2016-08-30 05:57:00,
2016-08-30 02:02:00,71.1,70.0,29.69,South,176,0.0,0.0,96,0.00,,,0.00,0.00,Weather logger V3.0.,2016-08-30 06:02:00,
2016-08-30 02:07:00,71.1,70.0,29.69,South,176,0.0,0.0,96,0.00,,,0.00,0.00,Weather logger V3.0.,2016-08-30 06:07:00,
2016-08-30 02:12:00,71.1,70.2,29.70,South,176,0.0,0.0,97,0.00,,,0.00,0.00,Weather logger V3.0.,2016-08-30 06:12:00,
2016-08-30 02:17:00,71.1,70.2,29.69,South,176,0.0,0.0,97,0.00,,,0.00,0.00,Weather logger V3.0.,2016-08-30 06:17:00,
2016-08-30 02:22:00,71.1,70.2,29.70,South,176,0.0,0.0,97,0.00,,,0.00,0.00,Weather logger V3.0.,2016-08-30 06:22:00,
2016-08-30 02:28:00,71.1,70.2,29.70,South,176,0.0,0.0,97,0.00,,,0.00,0.00,Weather logger V3.0.,2016-08-30 06:28:00,
2016-08-30 02:33:00,70.9,70.0,29.70,South,176,0.0,0.0,97,0.00,,,0.00,0.00,Weather logger V3.0.,2016-08-30 06:33:00,